Cherokee, North Carolina, United States (28719)
Lat: 35.47N, Lon: 83.31W
Wx Zone: NCZ051
Local Info
Past Weather Observations for Today

NOTE: This archive is for the closest National Weather Service station to Cherokee. Information may differ from the station used for current weather conditions.

Click here for Long-term Archive

Time Weather Temperature Dewpoint Humidity Pressure Winds Precip Visibility
14:35
Fair
N/A N/A N/A 29.98 in
(1015 mb)
NW 6.9 mph
(NW 11 kph)
- 10SM
14:15
Fair
N/A N/A N/A 29.98 in
(1015 mb)
NW 4.6 mph
(NW 7 kph)
- 10SM
13:55
Fair
N/A N/A N/A 29.98 in
(1015 mb)
NNW 8.1 mph
(NNW 13 kph)
- 10SM
13:35
Fair
N/A N/A N/A 29.98 in
(1015 mb)
NW 9.2 mph
(NW 15 kph)
- 10SM
13:15
Fair
64°F / 18°C 37°F / 3°C 37% 30.01 in
(1016 mb)
N 10.4 mph
(N 17 kph)
- 10SM
12:55
Fair
64°F / 18°C 37°F / 3°C 37% 29.98 in
(1015 mb)
N 12.7 mph
(N 20 kph)
- 10SM
12:35
Fair
63°F / 17°C 39°F / 4°C 42% 30.01 in
(1016 mb)
N 6.9 mph
(N 11 kph)
- 10SM
12:15
Fair
63°F / 17°C 39°F / 4°C 42% 30.01 in
(1016 mb)
NNW 9.2 mph
(NNW 15 kph)
- 10SM
11:55
Fair
61°F / 16°C 43°F / 6°C 52% 30.01 in
(1016 mb)
N 9.2 mph
(N 15 kph)
- 10SM
11:35
Fair
61°F / 16°C 45°F / 7°C 55% 30.04 in
(1017 mb)
N 8.1 mph
(N 13 kph)
- 10SM
11:15
Fair
59°F / 15°C 46°F / 8°C 63% 30.04 in
(1017 mb)
NW 8.1 mph
(NW 13 kph)
- 10SM
10:55
Fair
54°F / 12°C 54°F / 12°C 100% 30.04 in
(1017 mb)
N 3.5 mph
(N 6 kph)
- 10SM
10:35
Fair
52°F / 11°C 52°F / 11°C 100% 30.04 in
(1017 mb)
Calm - 10SM
10:15
Fair
50°F / 10°C 50°F / 10°C 100% 30.04 in
(1017 mb)
Calm - 10SM
09:55
Fair
48°F / 9°C 46°F / 8°C 94% 30.06 in
(1018 mb)
Calm - 10SM
09:35
Fog And Mist
46°F / 8°C 46°F / 8°C 100% 30.06 in
(1018 mb)
Calm - 5SM
09:15
Fog And Mist
45°F / 7°C 45°F / 7°C 100% 30.06 in
(1018 mb)
Calm - 3/4SM
08:55
Fog
45°F / 7°C 43°F / 6°C 93% 30.06 in
(1018 mb)
Calm - 1/4SM
08:35
Fog
43°F / 6°C 43°F / 6°C 100% 30.06 in
(1018 mb)
Calm - 1/4SM
08:15
Fog
43°F / 6°C 43°F / 6°C 100% 30.06 in
(1018 mb)
Calm - 1/4SM
07:55
Fog
43°F / 6°C 43°F / 6°C 100% 30.06 in
(1018 mb)
Calm - 1/2SM
07:35
Fog And Mist
43°F / 6°C 43°F / 6°C 100% 30.04 in
(1017 mb)
Calm - 3SM
07:15
Fair
43°F / 6°C 43°F / 6°C 100% 30.06 in
(1018 mb)
Calm - 7SM
06:55
Fair
43°F / 6°C 43°F / 6°C 100% 30.04 in
(1017 mb)
Calm - 10SM
06:35
Fair
43°F / 6°C 43°F / 6°C 100% 30.04 in
(1017 mb)
Calm - 7SM
06:15
Fair
43°F / 6°C 43°F / 6°C 100% 30.04 in
(1017 mb)
Calm - 7SM
05:55
Fog And Mist
43°F / 6°C 41°F / 5°C 93% 30.04 in
(1017 mb)
Calm - 4SM
05:35
Fog And Mist
43°F / 6°C 41°F / 5°C 93% 30.04 in
(1017 mb)
Calm - 3/4SM
05:15
Fog
N/A N/A N/A 30.04 in
(1017 mb)
Calm - 1/2SM
04:55
Fog
N/A N/A N/A 30.04 in
(1017 mb)
Calm - 1/4SM
04:35
Fog
N/A N/A N/A 30.04 in
(1017 mb)
Calm - 1/2SM
04:15
Fog
N/A N/A N/A 30.04 in
(1017 mb)
Calm - 1/4SM
03:55
Fog
N/A N/A N/A 30.06 in
(1018 mb)
Calm - 1/4SM
03:35
Fog
N/A N/A N/A 30.06 in
(1018 mb)
Calm - 1/4SM
03:15
Fog
N/A N/A N/A 30.06 in
(1018 mb)
Calm - 1/4SM
02:55
Fog
N/A N/A N/A 30.06 in
(1018 mb)
Calm - 1/4SM
02:35
Fog
N/A N/A N/A 30.06 in
(1018 mb)
Calm - 1/4SM
02:15
Fog
N/A N/A N/A 30.06 in
(1018 mb)
Calm - 1/4SM
01:55
Fog
43°F / 6°C 43°F / 6°C 100% 30.06 in
(1018 mb)
Calm - 1/4SM
01:35
Fog
43°F / 6°C 43°F / 6°C 100% 30.06 in
(1018 mb)
Calm - 1/4SM
01:15
Fog
43°F / 6°C 43°F / 6°C 100% 30.06 in
(1018 mb)
Calm - 1/2SM
00:55
Fog
43°F / 6°C 43°F / 6°C 100% 30.06 in
(1018 mb)
Calm 0.01 in
(0.25 mm)
1/4SM
00:40
Fog
45°F / 7°C 45°F / 7°C 100% 30.06 in
(1018 mb)
Calm 0.01 in
(0.25 mm)
1/4SM
00:36
Fog
45°F / 7°C 45°F / 7°C 100% 30.06 in
(1018 mb)
Calm 0.01 in
(0.25 mm)
1/4SM
00:16
Fog
45°F / 7°C 45°F / 7°C 100% 30.06 in
(1018 mb)
Calm - 1/4SM
Time Weather Temperature Dewpoint Humidity Pressure Winds Precip Visibility


Weather for websites

WeatherForYou.com, LLC is not responsible for any damages or problems caused by this service. Current weather conditions are obtained from the closest station including government and personal stations which may have varying degrees of accuracy. Weather forecasts are derived from the NOAA NDFD. Like all things, this site belongs to Jesus Christ... He just trusts me to maintain it. If you have any questions or comments email webmaster@weatherforyou.com

Copyright © 2014, WeatherForYou.com LLC. All rights reserved.